Location: Krakow
(50.0830°N, 19.9170°E)
Time: 19:35:29
(UTC+01:00)

SR - Pass Details

Date: 11 February 2023
Orbit: 582 x 867 km, 66.7° (Epoch: 20 March)

Event Time Altitude Azimuth Distance (km) Brightness Sun altitude
Rises 15:46:09 0° 293° (WNW) 3,019 ? 8.4°
Reaches altitude 10° 15:50:29 10° 331° (NNW) 2,033 ? 7.8°
Maximum altitude 15:51:39 11° 346° (NNW) 1,958 ? 7.6°
Drops below altitude 10° 15:52:49 10° 1° (N) 1,999 ? 7.5°
Sets 15:56:56 0° 39° (NE) 2,854 ? 6.9°
